Weather History for Peru, IL

Change the Weather History Date:

Saturday, March 30, 2013

  Actual Average Record
Temperature  
Mean Temperature 44 °F -  
Max Temperature 57 °F 52 °F 76 °F (1967)
Min Temperature 31 °F 31 °F 8 °F (1969)
Degree Days  
Heating Degree Days 21    
Moisture  
Dew Point 35 °F    
Average Humidity 66    
Maximum Humidity 79    
Minimum Humidity 48    
Precipitation  
Precipitation 0.00 in - - ()
Sea Level Pressure  
Sea Level Pressure 30.05 in    
Wind  
Wind Speed 9 mph (South)    
Max Wind Speed 22 mph    
Max Gust Speed 30 mph    
Visibility 10 miles    
Events      
Averages and records for this station are not official NWS values.
T = Trace of Precipitation, MM = Missing Value Source: NWS Daily Summary

Daily Weather History Graph

Daily Weather History Graph

Search for Another Location

Airport:

Trip Planner

Search our weather history database for the weather conditions in past years. The results will help you decide how hot, cold, wet, or windy it might be!

Date:

Astronomy

Mar. 30, 2013 Rise Set
Actual Time 6:42 AM CDT 7:19 PM CDT
Civil Twilight 6:14 AM CDT 7:47 PM CDT
Nautical Twilight 5:42 AM CDT 8:20 PM CDT
Astronomical Twilight 5:08 AM CDT 8:54 PM CDT
Moon 11:29 PM CDT (3/30) 8:35 AM CDT (3/30)
Length of Visible Light 13h 32m
Length of Day
12h 37m
Waning Gibbous, 86% of the Moon is Illuminated
Mar 30
Waning Gibbous
Apr 2
Last Quarter
Apr 10
New
Apr 18
First Quarter
Apr 25
Full

Hourly Weather History & Observations

Time (CDT) Temp. Windchill Dew Point Humidity Pressure Visibility Wind Dir Wind Speed Gust Speed Precip Events Conditions
12:15 AM 36.9 °F 31.4 °F 29.7 °F 75% 30.23 in 10.0 mi East 6.9 mph - N/A   Clear
12:35 AM 39.2 °F 35.0 °F 28.4 °F 65% 30.23 in 10.0 mi ESE 5.8 mph - N/A   Clear
12:55 AM 38.3 °F 33.9 °F 27.5 °F 65% 30.24 in 10.0 mi East 5.8 mph - N/A   Clear
1:15 AM 36.9 °F 33.1 °F 27.5 °F 69% 30.24 in 10.0 mi East 4.6 mph - N/A   Clear
1:35 AM 35.6 °F 31.7 °F 27.3 °F 72% 30.23 in 10.0 mi ENE 4.6 mph - N/A   Clear
1:55 AM 34.9 °F 29.9 °F 27.3 °F 74% 30.22 in 10.0 mi ENE 5.8 mph - N/A   Clear
2:15 AM 34.3 °F 28.4 °F 26.6 °F 73% 30.21 in 10.0 mi East 6.9 mph - N/A   Clear
2:35 AM 34.3 °F 29.2 °F 27.1 °F 75% 30.20 in 10.0 mi East 5.8 mph - N/A   Clear
2:55 AM 34.0 °F 28.0 °F 26.4 °F 74% 30.19 in 10.0 mi East 6.9 mph - N/A   Clear
3:35 AM 33.3 °F 28.9 °F 25.7 °F 74% 30.19 in 10.0 mi East 4.6 mph - N/A   Clear
3:55 AM 33.1 °F - 25.9 °F 75% 30.19 in 10.0 mi Calm Calm - N/A   Clear
4:15 AM 33.1 °F - 25.5 °F 74% 30.19 in 10.0 mi Calm Calm - N/A   Clear
4:35 AM 32.2 °F 26.7 °F 25.3 °F 76% 30.18 in 10.0 mi East 5.8 mph - N/A   Clear
5:15 AM 32.0 °F 26.4 °F 25.7 °F 78% 30.18 in 10.0 mi East 5.8 mph - N/A   Clear
5:35 AM 32.0 °F 27.5 °F 25.3 °F 76% 30.17 in 10.0 mi East 4.6 mph - N/A   Clear
5:55 AM 31.3 °F 26.6 °F 25.3 °F 79% 30.17 in 10.0 mi East 4.6 mph - N/A   Clear
6:15 AM 31.6 °F 28.3 °F 25.3 °F 78% 30.17 in 10.0 mi East 3.5 mph - N/A   Clear
6:35 AM 31.8 °F 28.5 °F 25.3 °F 77% 30.17 in 10.0 mi East 3.5 mph - N/A   Clear
6:55 AM 32.0 °F 28.7 °F 25.7 °F 78% 30.16 in 10.0 mi ESE 3.5 mph - N/A   Clear
7:15 AM 32.0 °F 28.7 °F 26.1 °F 79% 30.16 in 10.0 mi ESE 3.5 mph - N/A   Clear
7:35 AM 34.3 °F 29.2 °F 27.0 °F 74% 30.15 in 10.0 mi ESE 5.8 mph - N/A   Clear
7:55 AM 36.7 °F 32.0 °F 27.7 °F 70% 30.15 in 10.0 mi SE 5.8 mph - N/A   Clear
8:15 AM 38.7 °F 34.3 °F 29.5 °F 70% 30.14 in 10.0 mi ESE 5.8 mph - N/A   Clear
8:55 AM 42.6 °F 37.2 °F 32.0 °F 66% 30.13 in 10.0 mi ESE 9.2 mph - N/A   Clear
9:15 AM 45.3 °F 41.1 °F 33.3 °F 63% 30.12 in 10.0 mi ESE 8.1 mph - N/A   Clear
9:35 AM 48.0 °F - 34.7 °F 60% 30.11 in 10.0 mi East 11.5 mph - N/A   Clear
9:55 AM 50.2 °F - 36.3 °F 59% 30.11 in 10.0 mi SSE 10.4 mph - N/A   Clear
10:15 AM 50.2 °F - 36.5 °F 59% 30.11 in 10.0 mi East 11.5 mph - N/A   Clear
10:35 AM 50.9 °F - 37.0 °F 59% 30.11 in 10.0 mi SSW 11.5 mph - N/A   Clear
10:55 AM 52.2 °F - 37.2 °F 57% 30.10 in 10.0 mi South 15.0 mph - N/A   Clear
11:15 AM 52.2 °F - 36.5 °F 55% 30.08 in 10.0 mi East 17.3 mph - N/A   Clear
11:35 AM 53.2 °F - 37.0 °F 54% 30.08 in 10.0 mi WSW 16.1 mph 24.2 mph N/A   Clear
12:15 PM 54.3 °F - 36.5 °F 51% 30.06 in 10.0 mi WSW 17.3 mph - N/A   Clear
12:35 PM 54.7 °F - 36.5 °F 50% 30.04 in 10.0 mi SW 18.4 mph 24.2 mph N/A   Clear
1:15 PM 55.8 °F - 36.7 °F 49% 30.02 in 10.0 mi East 21.9 mph 26.5 mph N/A   Clear
1:35 PM 56.5 °F - 37.6 °F 49% 30.00 in 10.0 mi East 21.9 mph 29.9 mph N/A   Clear
1:55 PM 56.3 °F - 37.0 °F 48% 29.99 in 10.0 mi SW 19.6 mph 27.6 mph N/A   Clear
2:15 PM 56.3 °F - 39.2 °F 53% 29.98 in 10.0 mi WSW 17.3 mph - N/A   Clear
2:35 PM 56.7 °F - 40.1 °F 54% 29.97 in 10.0 mi WSW 19.6 mph 26.5 mph N/A   Clear
2:55 PM 57.6 °F - 39.7 °F 51% 29.97 in 10.0 mi WSW 20.7 mph 26.5 mph N/A   Scattered Clouds
3:15 PM 57.0 °F - 39.9 °F 53% 29.98 in 10.0 mi WSW 18.4 mph 25.3 mph N/A   Mostly Cloudy
3:35 PM 57.4 °F - 39.0 °F 50% 29.97 in 10.0 mi WSW 19.6 mph 26.5 mph N/A   Mostly Cloudy
3:55 PM 57.6 °F - 39.7 °F 51% 29.96 in 10.0 mi WSW 19.6 mph 27.6 mph N/A   Clear
4:15 PM 57.4 °F - 39.6 °F 51% 29.96 in 10.0 mi WSW 17.3 mph - N/A   Clear
4:35 PM 57.2 °F - 39.2 °F 51% 29.95 in 10.0 mi SW 15.0 mph - N/A   Scattered Clouds
4:55 PM 56.3 °F - 39.2 °F 53% 29.94 in 10.0 mi SW 13.8 mph - N/A   Mostly Cloudy
5:15 PM 56.1 °F - 38.5 °F 52% 29.93 in 10.0 mi WSW 16.1 mph - N/A   Mostly Cloudy
5:35 PM 55.6 °F - 39.6 °F 55% 29.93 in 10.0 mi SW 13.8 mph - N/A   Overcast
5:55 PM 54.7 °F - 38.1 °F 54% 29.93 in 10.0 mi WSW 13.8 mph - N/A   Overcast
6:35 PM 52.9 °F - 40.3 °F 62% 29.91 in 10.0 mi WSW 9.2 mph - N/A   Overcast
6:55 PM 52.2 °F - 41.2 °F 66% 29.91 in 10.0 mi West 9.2 mph - N/A   Overcast
7:15 PM 51.4 °F - 40.5 °F 66% 29.90 in 10.0 mi West 9.2 mph - N/A   Overcast
7:35 PM 50.9 °F - 40.5 °F 67% 29.89 in 10.0 mi West 10.4 mph - N/A   Overcast
7:55 PM 50.9 °F - 40.3 °F 67% 29.89 in 10.0 mi West 10.4 mph - N/A   Overcast
8:15 PM 50.5 °F - 40.6 °F 69% 29.90 in 10.0 mi WSW 9.2 mph - N/A   Overcast
8:35 PM 50.0 °F - 41.0 °F 71% 29.90 in 10.0 mi WSW 9.2 mph - N/A   Overcast
8:55 PM 49.5 °F - 41.0 °F 73% 29.90 in 10.0 mi West 6.9 mph - N/A   Overcast
9:15 PM 49.3 °F - 41.2 °F 74% 29.90 in 10.0 mi West 6.9 mph - N/A   Overcast
9:35 PM 48.7 °F - 41.0 °F 75% 29.90 in 10.0 mi WSW 5.8 mph - N/A   Overcast
9:55 PM 48.6 °F - 41.0 °F 75% 29.89 in 10.0 mi WSW 5.8 mph - N/A   Overcast
10:15 PM 48.7 °F - 41.2 °F 75% 29.89 in 10.0 mi WSW 6.9 mph - N/A   Overcast
10:35 PM 49.5 °F - 41.4 °F 74% 29.89 in 10.0 mi SW 11.5 mph 19.6 mph N/A   Overcast
10:55 PM 48.9 °F - 42.1 °F 77% 29.88 in 7.0 mi SW 9.2 mph - N/A   Overcast
11:15 PM 49.1 °F - 42.1 °F 77% 29.87 in 10.0 mi SW 10.4 mph - N/A   Overcast
11:35 PM 49.1 °F - 42.1 °F 77% 29.86 in 10.0 mi SW 13.8 mph - N/A   Overcast
11:55 PM 49.3 °F - 41.9 °F 76% 29.86 in 10.0 mi WSW 12.7 mph 21.9 mph N/A   Overcast